Flag for U.S.A. Weather past 2 weeks in Amarillo, Texas, U.S.A.

Now
70 °F

Clear.


Feels Like: 70 °F
Forecast: 66 / 93 °F
Wind: 16 mph from South

Location: Amarillo International Airport

Current Time: Aug 20, 2014 at 6:47:55 AM

Latest Report: Aug 20, 2014 at 5:53 AM


Visibility: 10 mi

Pressure: 29.75 "Hg

Humidity: 81%

Dew point: 64 °F

Location of AmarilloLocation

Historic Weather in Amarillo — Graph

°F

Amarillo temperature yesterday

Maximum temperature yesterday: 89 °F (at 3:53 PM)
Minimum temperature yesterday: 65 °F (at 4:53 AM)
Average temperature yesterday: 77 °F

Past Weeks' High & Low Weather Summary

 TemperatureHumidityPressure
High100 °F (Aug 6, 5:53 PM)94% (Aug 19, 4:53 AM)30.20 "Hg (Aug 19, 4:53 AM)
Low63 °F (Aug 12, 6:53 AM)14% (Aug 7, 2:53 PM)29.71 "Hg (Aug 19, 7:53 PM)
Average78 °F56%29.92 "Hg
* Reported Aug 5 4:53 AM — Aug 20 4:53 AM, Amarillo, Weather by CustomWeather, © 2014

Note: Actual official high and low records may vary slightly from our data, if they occured in-between our weather recording intervals... More about our weather records

Advertising

Amarillo weather history for previous 24 hours

 ConditionsComfort  
Time TempWeatherWind HumidityBarometerVisibility
4:53 AM
Aug 20
71 °FClear.16 mph78%29.74 "Hg10 mi
3:53 AM72 °FClear.14 mph76%29.74 "Hg10 mi
2:53 AM74 °FClear.16 mph71%29.74 "Hg10 mi
1:53 AM73 °FClear.14 mph74%29.75 "Hg10 mi
12:53 AM75 °FClear.13 mph69%29.77 "Hg10 mi
11:53 PM
Aug 19
75 °FClear.14 mph66%29.77 "Hg10 mi
10:53 PM75 °FClear.12 mph60%29.77 "Hg10 mi
9:53 PM77 °FClear.10 mph56%29.75 "Hg10 mi
8:53 PM80 °FSunny.10 mph49%29.73 "Hg10 mi
7:53 PM85 °FSunny.13 mph42%29.71 "Hg10 mi
6:53 PM87 °FSunny.12 mph37%29.72 "Hg10 mi
5:53 PM88 °FSunny.13 mph38%29.72 "Hg10 mi
4:53 PM89 °FPassing clouds.17 mph36%29.73 "Hg10 mi
3:53 PM89 °FSunny.16 mph39%29.74 "Hg10 mi
2:53 PM87 °FSunny.8 mph40%29.76 "Hg10 mi
1:53 PM86 °FSunny.12 mph45%29.78 "Hg10 mi
12:53 PM83 °FSunny.12 mph51%29.80 "Hg10 mi
11:53 AM82 °FSunny.8 mph55%29.80 "Hg10 mi
10:53 AM79 °FSunny.9 mph62%29.82 "Hg10 mi
9:53 AM75 °FSunny.8 mph71%29.83 "Hg10 mi
8:53 AM70 °FSunny.6 mph84%29.85 "Hg10 mi
7:53 AM67 °FClear.5 mph90%29.83 "Hg8 mi
6:53 AM65 °FClear.6 mph91%29.82 "Hg10 mi
Weather by CustomWeather, © 2014

See weather overviewHow to use our weather pages